Regional Weather Roundup
Issued by NWS Charleston, WV

Home | Current Version | Previous Version | Graphics & Text | Print | Product List | Glossary On
Versions: 1 2 3 4 5 6 7 8 9 10 11 12 13 14 15 16 17 18 19 20 21 22 23 24 25 26 27 28 29 30 31 32 33 34 35 36 37 38 39 40 41 42 43 44 45 46 47 48 49 50
000
ASUS41 KRLX 201810
RWRRLX
West Virginia Regional Weather Roundup
National Weather Service Charleston WV
200 PM EDT MON APR 20 2015

Note: "fair" indicates few or no clouds below 12,000 feet with no
significant weather and/or obstructions to visibility.

WVZ003-201900-
Northern Panhandle of West Virginia

CITY           SKY/WX    TMP DP  RH WIND       PRES   REMARKS
WHEELING       NOT AVBL
$$

WVZ009-201900-
Northwest West Virginia

CITY           SKY/WX    TMP DP  RH WIND       PRES   REMARKS
PARKERSBURG    PTSUNNY   69  49  48 SW10G22   29.54S
$$

WVZ006-201900-
Western West Virginia

CITY           SKY/WX    TMP DP  RH WIND       PRES   REMARKS
HUNTINGTON     LGT RAIN  67  52  58 W9G22     29.57R
$$

WVZ015-201900-
West Central West Virginia

CITY           SKY/WX    TMP DP  RH WIND       PRES   REMARKS
CHARLESTON     PTSUNNY   72  49  44 W15G23    29.56S
$$

WVZ022-031-201900-
North Central West Virginia

CITY           SKY/WX    TMP DP  RH WIND       PRES   REMARKS
CLARKSBURG     PTSUNNY   73  51  46 SW23G31   29.52F
MORGANTOWN     PTSUNNY   74  47  38 SW10G21   29.52F
$$

WVZ025-035-042-045-201900-
Southern West Virginia

CITY           SKY/WX    TMP DP  RH WIND       PRES   REMARKS
BECKLEY        MOSUNNY   71  44  37 SW15G37   29.64S
LOGAN            N/A     72  50  46 S14G26    29.57S
BLUEFIELD      PTSUNNY   69  45  41 W18G30    29.69R
LEWISBURG      PTSUNNY   72  44  36 SW20G29   29.64R
$$

WVZ047-201900-
Northern Mountains of West Virginia

CITY           SKY/WX    TMP DP  RH WIND       PRES   REMARKS
ELKINS         PTSUNNY   73  45  36 SW15G29   29.56F
$$

WVZ052-201900-
Eastern Panhandle of West Virginia

CITY           SKY/WX    TMP DP  RH WIND       PRES   REMARKS
MARTINSBURG    PTSUNNY   72  58  61 S9        29.57F
PETERSBURG     CLOUDY    76  50  40 S14G20    29.54F
$$


USA.gov is the U.S. government's official web portal to all federal, state and local government web resources and services.